Location: Unspecified
(49.2170°N, 0.0000°E)
Time: 16:57:32
(UTC+00:00)

Transit 2A - Pass Details

Date: 18 June 2019
Orbit: 594 x 964 km, 66.7° (Epoch: 19 July)

Event Time Altitude Azimuth Distance (km) Brightness Sun altitude
Rises 09:41:05 0° 323° (NW) 3,509 9.1 52.4°
Reaches altitude 10° 09:43:42 10° 323° (NW) 2,515 8.4 52.7°
Maximum altitude 09:49:32 87° 235° (SW) 809 7.2 53.5°
Drops below altitude 10° 09:54:42 10° 148° (SSE) 2,247 9.1 54.2°
Sets 09:56:56 0° 148° (SSE) 3,110 9.7 54.5°
